Погода в Горки

Погода в Горки : погода сейчас, прогноз погоды и архив. Всё, что Вы хотите узнать о погоде в Горки!

Хотите узнать прогноз погоды в Горки? Тогда Вам сюда: Погода в Горки

Поиск расширенной информации на нашем сайте:

Другие новости

Новости СМИ2

Главная страница сайта

Новости сайта

03.07.2017

Напоминаем, что на нашем специализированном сайте Метеоцентр.Азия вы можете получить высокодетализированные автоматические прогнозы погоды по пунктам России, СНГ и мира в авиационном формате (включающие направление и скорость ветра, видимость, явления погоды, количество и форму облачности, нижнюю и верхнюю границу облачности).


Погода в Горки - сегодня

Время (UTC), дата Ветер
(°,м/с) 
Видим.   Явления Облачность Т
(°С)
Тd
(°С)
f(%) Тe
(°С)
Pmin
(гПа)
dP
(гПа)
Po
(мм)
O2
(г/м3)
Тmin Tmax R s Состояние
почвы
15 24.05.18 310 (СЗ) 18000 м    4/4 600 м 
[Sc]
+21.2 +13.1 60 +27  1019.5  -1.1  747  277           
18 24.05.18 320 (СЗ) 19000 м    6/6 600 м 
[Sc]
+17 +13 77 +23  1020.6  0.7  748  281    +21.6       
21 24.05.18 010 (С) 18000 м    3/3 600 м 
[Sc]
+15.2 +11.8 80 +19  1021.3  0.5  748  283           
00 25.05.18 020 (С) 20000 м    3/0 верхняя 
[Ci fib]
+14 +11.3 84 +17  1022.1  0.7  749  285           
06 25.05.18 020 (С) 17000 м    3/0 верхняя 
[Ci fib]
+18.7 +13.1 70 +25  1024.1  1.1  750  280  +13.3         
09 25.05.18 030 (СВ) 16000 м    6/4 600 м верхняя 
[Cu hum|Ci fib]
+21.9 +11.9 53 +26  1024.3  0.5  751  278           
12 25.05.18 330 (СЗ) 19000 м    6/6 600 м 
[Cu hum]
+22.3 +12.6 54 +27  1024.3  0.1  751  277           
15 25.05.18 360 (С) 19000 м    4/4 600 м 
[Cu hum]
+21 +11.5 55 +24  1024.8  0.3  751  279           
18 25.05.18 030 (СВ) 16000 м    ясно 
+17.6 +9.4 59 +18  1025.9  0.8  752  283    +23.4       
21 25.05.18 040 (СВ) 19000 м    ясно 
+14.1 +6.7 61 +14  1028.2  1.9  753  287           
00 26.05.18 030 (СВ) 18000 м    ясно 
+11.5 +5.6 67 +10  1029.8  1.3  754  291           
09 26.05.18 060 (СВ) 20000 м    1/0 верхняя 
[Ci fib]
+18.3 +7.4 49 +18  1031.7  0.1  756  284           
12 26.05.18 060 (СВ) 15000 м    3/0 верхняя 
[Ci fib]
+19.8 +7.3 44 +20  1030.9  -0.6  755  283           
15 26.05.18 070 (В) 19000 м    3/0 верхняя 
[Ci fib]
+19.9 +7.8 46 +20  1029.4  -1.5  754  282           
18 26.05.18 050 (СВ) 17000 м    3/0 верхняя 
[Ci fib]
+16.3 +8.4 59 +17  1029.1  -0.6  754  285    +20.5       
21 26.05.18 080 (В) 17000 м    1/0 верхняя 
[Ci fib]
+11.9 +6.9 71 +13  1030.4  0.9  755  290           
00 27.05.18 090 (В) 18000 м    1/0 верхняя 
[Ci fib]
+10.2 +6.3 77 +10  1030.9  0.3  755  292           
03 27.05.18 090 (В) 18000 м    3/0 верхняя 
[Ci fib]
+9.8 +5.7 76 +10  1030.1  -0.8  754  292           
06 27.05.18 140 (ЮВ) 16000 м    8/0 верхняя 
[Ci fib]
+15.8 +7.4 57 +17  1029.7  0.1  754  286  +8.5         
09 27.05.18 160 (Ю) 20000 м    3/0 верхняя 
[Ci fib]
+19.5 +5.3 39 +21  1028.7  -0.6  754  283           
12 27.05.18 200 (Ю) 15000 м    3/0 верхняя 
[Ci fib]
+21.5 +7.7 41 +22  1026.6  -1.9  752  280           
15 27.05.18 160 (Ю) 14000 м    1/0 верхняя 
[Ci fib]
+21.8 +7.7 40 +22  1025.1  -1.4  751  279           
18 27.05.18 220 (ЮЗ) 15000 м    1/0 верхняя 
[Ci fib]
+18.4 +7.8 50 +20  1024.7  -0.7  751  282    +22.1       
21 27.05.18 210 (ЮЗ) 16000 м    ясно 
+12.1 +8 76 +13  1025.6  0.3  751  288           
00 28.05.18 130 (ЮВ) 14000 м    ясно 
+9.5 +8.1 91 +11  1026.5  0.6  751  291           
Время (UTC), дата Ветер
(°,м/с) 
Видим.   Явления Облачность Т
(°С)
Тd
(°С)
f(%) Тe
(°С)
Pmin
(гПа)
dP
(гПа)
Po
(мм)
O2
(г/м3)
Тmin Tmax R s Состояние
почвы

Для получения пояснительной информации подведите курсор к названию столбца.

ПОГОДА в Горки - архив

Всё, что Вы хотите узнать о погоде в Горки - удобно и подробно!

Выберите нужную дату (начиная с 1 января 2015* года) и нажмите кнопку "Найти".
Будут отображены архивные сводки погоды по пункту Горки, начиная с указанной даты.


Отображать данные в формате CSV (для использования в таблицах Excel)


Внимание! Наш архив погоды предназначен исключительно для личного некоммерческого использования в познавательных целях. Если Вам необходимы официальные справки о состоянии погоды (для производственных, юридических, коммерческих и т.п. целей), обращайтесь в органы Росгидромета.

*Примечание: данная дата относится к архиву по метеостанциям СССР (Россия, СНГ, Балтия).
Архив по метеостанциям Зарубежной Европы и Азии (кроме Китая) хранится 10 дней, по другим регионам земного шара (Китай, Африка, Америка, Австралия, Океания) - 1 день.

Горки - район местоположения метеостанции


Название, широта, долгота, высота метеостанции:
Горки 54.3°ш. 30.9°д. 205 м над ур. моря [Беларусь]

Дополнительная информация

В oтличие oт бoльшинства пoгoдных сайтoв мы публикуем пoдрoбную метеoинфoрмацию в детальнoм прoфессиoнальнoм фoрмате.

Характеристики температуры и влажнoсти вoздуха измеряются на высoте 2 м в тени вдали oт зданий и деревьев.
Скoрoсть ветра измеряется на высoте 10 м (на урoвне рoста челoвека скoрoсть ветра ниже в 1.5-2 раза). Если метеoстанция нахoдится в гoрoде или в лесу, тo скoрoсть ветра занижена на 2-4 м/с пo сравнению с oткрытым местoм. Скoрoсть ветра над акватoриями крупных рек и oзёр, а также на вершинах хoлмoв на 2-5 м/с выше, чем в oбычных услoвиях.
Атмoсфернoе давление в разных тoчках местнoсти мoжет значительнo oтличаться oт давления на метеoстанции, в зависимoсти oт услoвий рельефа (при пoдъёме на 10 м давление пoнижается примернo на 1 мм рт.ст.).